国际通讯卫星 510星 (INTELSAT 510)

导读 | 星芒AI

INTELSAT 510 是一颗由国际通信卫星组织(Intelsat)运营的通信卫星,于1996年发射,旨在提供跨大西洋的固定卫星服务(FSS)。该卫星搭载C波段和Ku波段转发器,主要用于广播、电视传输和企业通信。它在轨道位置34.5°W上运行,覆盖美洲、欧洲和非洲部分地区。INTELSAT 510 在其服役期间为多个行业提供了关键的通信支持,是当时国际通信基础设施的重要组成部分。

基本信息
目录编号:
15629
目录名称:
INTELSAT 510
国际标识:
1985-025A
轨道中心:
EARTH
卫星名称:
国际通讯卫星 510星
卫星全名:
国际通讯卫星 510星 (INTELSAT 510)
卫星状态:
在轨 (已飞行14831 天)
发射日期:
1985-03-22 UTC
国别 :
(ITSO)
星等 :
--
轨道信息
数据来源 国际轨道数据 AOE轨道数据
星历时间 2025-10-28T19:50:05+0800
19小时前
查看轨道信息
2025-10-29T02:00:00+0800
12小时前
查看轨道信息
半长轴 42731.902km 42731.902km
偏心率 0.0028057 0.0028012
轨道倾角 13.938° 13.938°
近地点辐角 7.920° 7.759°
升交点赤经 342.059° 342.057°
平近点角 353.195° 84.252°
近地点 36233.874km 36234.066km
远地点 36473.66km 36473.468km
周期 1465.170分钟 1465.170分钟
每日圈数 0.982821 0.982821
详细信息
卫星平台:
Intelsat V
平衡模式:
三轴稳定
覆盖范围:
全球
运营商:
国际卫星通信公司
运营商所在国:
美国
制造商(研发单位):
福特工程公司
制造商所在国:
美国
使用方式:
暂无
卫星简介
从1965年4月至1984年3月,国际通信卫星组织发射了5代、6种不同性能的卫星共计35颗,除6颗卫星因运载火箭和远地点发动机故障而发射失败外,其余29颗卫星均被送到了预定的静止轨道位置。1984年8月前后,国际通信卫星组织利用部署在大西洋、太平洋、印度洋上空的15颗国际通信卫星,为遍布世界各地170多个国家或地区提供电话、电传、电报、电视和数据传输等电信业务;该卫星已退役。
2D轨道图
3D轨道图
轨道高度分析图
轨道倾角分析图
轨道综合分析图
查看轨道综合分析图